Ephrata, WA
on Monday, November 19, 2012

Monday
Previous Day Next Day
Daily Summary
 ActualAverageRecord
Temperature
Mean Temperature °F 36°F  
Max Temperature 57°F 43°F 60°F (1962)
Min Temperature 43°F 28°F 5°F (1985)
Degree Days
Heating Degree Days 15 29  
Month to date heating degree days 443 488  
Since 1 July heating degree days 938 1069  
Cooling Degree Days 0 0  
Month to date cooling degree days 0 0  
Year to date cooling degree days 837 772  
Moisture
Dew Point 41°F   
Average Humidity 72    
Maximum Humidity 89    
Minimum Humidity 55    
Precipitation
Precipitation 0.10 in 0.04 in 0.33 in (1996)
Month to date precipitation 0.81 0.64  
Year to date precipitation 6.67 6.19  
Wind
Wind Speed 13 mph   
Max Wind Speed 24 mph   
Max Gust Speed 32 mph   
Visibility 10 miles   
Events Rain   

Key: T is trace of precipitation, MM is missing value
Source: NWS Daily Summary
Time(PST)TemperatureDew PointHumidity Pressure Visibility Wind DirectionWind SpeedGust SpeedPrecipitationEvents Conditions
12:53 AM 44.1°F 39.9°F 85% 29.75 in 8.0 miles South 13.8 mph - 0.04 in Rain Light Rain
1:53 AM 43.0°F 39.9°F 89% 29.74 in 10.0 miles SSE 13.8 mph - 0.01 in Rain Light Rain
2:53 AM 43.0°F 39.9°F 89% 29.73 in 10.0 miles SSE 12.7 mph - 0.01 in   Overcast
3:53 AM 44.1°F 39.9°F 85% 29.72 in 10.0 miles South 12.7 mph - N/A   Mostly Cloudy
4:53 AM 44.1°F 39.9°F 85% 29.72 in 10.0 miles SSE 3.5 mph - 0.00 in Rain Light Rain
5:53 AM 45.0°F 41.0°F 86% 29.70 in 10.0 miles South 11.5 mph - 0.00 in   Overcast
6:53 AM 46.0°F 41.0°F 83% 29.68 in 10.0 miles SSE 6.9 mph - 0.01 in   Overcast
7:53 AM 44.1°F 41.0°F 89% 29.68 in 10.0 miles Calm Calm - N/A   Overcast
8:53 AM 48.0°F 39.9°F 74% 29.67 in 10.0 miles SSE 13.8 mph - N/A   Overcast
9:53 AM 52.0°F 39.9°F 63% 29.64 in 10.0 miles South 17.3 mph - 0.00 in   Overcast
10:53 AM 53.1°F 39.9°F 61% 29.62 in 10.0 miles South 16.1 mph 25.3 mph N/A   Overcast
11:53 AM 55.0°F 39.0°F 55% 29.60 in 10.0 miles South 20.7 mph - N/A   Overcast
12:53 PM 55.0°F 39.9°F 57% 29.56 in 10.0 miles South 16.1 mph - 0.00 in   Overcast
1:53 PM 55.9°F 39.0°F 53% 29.54 in 10.0 miles South 19.6 mph - N/A   Overcast
2:53 PM 55.0°F 39.9°F 57% 29.54 in 10.0 miles South 12.7 mph - N/A   Overcast
3:53 PM 55.9°F 39.9°F 55% 29.55 in 10.0 miles South 17.3 mph - N/A   Overcast
4:53 PM 54.0°F 41.0°F 62% 29.56 in 10.0 miles South 13.8 mph - 0.00 in Rain Light Rain
5:53 PM 54.0°F 45.0°F 72% 29.61 in 10.0 miles SW 19.6 mph 28.8 mph 0.00 in Rain Light Rain
6:53 PM 51.1°F 46.0°F 83% 29.61 in 10.0 miles SSW 6.9 mph - 0.01 in Rain Light Rain
7:53 PM 50.0°F 45.0°F 83% 29.63 in 10.0 miles South 10.4 mph - 0.00 in   Overcast
8:53 PM 48.0°F 44.1°F 86% 29.66 in 10.0 miles SW 8.1 mph - 0.02 in Rain Light Rain
9:53 PM 46.9°F 43.0°F 86% 29.65 in 10.0 miles SSW 10.4 mph - 0.00 in Rain Light Rain
10:53 PM 48.0°F 42.1°F 80% 29.68 in 10.0 miles South 11.5 mph - 0.00 in Rain Light Rain
11:53 PM 48.9°F 42.1°F 77% 29.72 in 10.0 miles SSW 12.7 mph - 0.00 in   Overcast
Moon Phase
Nov. 19 Nov. 20 Nov. 28 Dec. 06 Dec. 13
Sunrise:07:08 AM (PST) Moon Rise:12:04 PM (PST)11/19
Sunset:04:17 PM (PST) Moon Set:11:02 PM (PST)11/19

Copyright © 2014 The Weather Underground, Inc.